Location: STAR School
(35.3054°N, 111.2976°W)
Time: 08:55:49
(UTC-07:00)

Tiros 1 despin weight - All Passes

Search period start: 26 May 2019 00:00
Search period end: 05 June 2019 00:00
Orbit: 594 x 643 km, 48.2° (Epoch: 25 May)

Date Brightness Start Highest point End Pass type
(mag) Time Alt. Az. Time Alt. Az. Time Alt. Az.
26 May - 08:35:37 10° SSW 08:39:48 42° SE 08:44:05 10° ENE daylight
26 May - 10:17:16 10° W 10:21:24 36° NNW 10:25:39 10° NE daylight
26 May - 12:01:01 10° NW 12:04:00 17° N 12:07:00 10° NE daylight
26 May - 13:43:33 10° NNW 13:46:55 20° NNE 13:50:19 10° ENE daylight
26 May - 15:24:42 10° NW 15:29:16 55° NNE 15:33:51 10° ESE daylight
26 May - 17:06:46 10° WNW 17:10:37 26° SW 17:14:29 10° S daylight
27 May - 07:13:24 10° SSE 07:15:22 13° SE 07:17:21 10° ESE daylight
27 May - 08:51:53 10° SW 08:56:20 88° SSE 09:00:53 10° NE daylight
27 May - 10:34:41 10° WNW 10:38:22 24° NNW 10:42:06 10° NE daylight
27 May - 12:18:21 10° NW 12:21:11 16° N 12:24:02 10° NE daylight
27 May - 14:00:05 10° NW 14:03:59 26° NNE 14:07:54 10° E daylight
27 May - 15:41:17 10° NW 15:45:56 80° SW 15:50:36 10° SE daylight
27 May - 17:25:08 10° WSW 17:26:56 12° SW 17:28:45 10° SSW daylight
28 May - 07:27:55 10° SSW 07:31:40 28° SE 07:35:29 10° ENE daylight
28 May - 09:08:43 10° WSW 09:13:03 49° NNW 09:17:27 10° NE daylight
28 May - 10:52:16 10° WNW 10:55:26 18° NNW 10:58:39 10° NNE daylight
28 May - 12:35:18 10° NNW 12:38:22 17° N 12:41:27 10° NE daylight
28 May - 14:16:32 10° NW 14:20:53 40° NNE 14:25:17 10° E daylight
28 May - 15:58:08 10° WNW 16:02:28 39° SW 16:06:48 10° SSE daylight
29 May - 07:43:47 10° SW 07:48:07 59° SE 07:52:32 10° ENE daylight
29 May - 09:25:58 10° W 09:29:54 30° NNW 09:33:54 10° NE daylight
29 May - 11:09:46 10° NW 11:12:36 16° N 11:15:27 10° NE daylight
29 May - 12:51:55 10° NW 12:55:28 22° NNE 12:59:03 10° ENE daylight
29 May - 14:33:02 10° NW 14:37:39 71° NE 14:42:18 10° ESE daylight
29 May - 16:15:35 10° W 16:18:52 19° SW 16:22:07 10° S daylight
30 May - 06:20:37 10° S 06:23:35 18° SE 06:26:36 10° E daylight
30 May - 08:00:19 10° WSW 08:04:44 70° NW 08:09:14 10° NE daylight
30 May - 09:43:29 10° WNW 09:46:55 21° NNW 09:50:23 10° NNE daylight
30 May - 11:26:56 10° NW 11:29:47 16° N 11:32:40 10° NE daylight
30 May - 13:08:23 10° NW 13:12:28 31° NNE 13:16:35 10° E daylight
30 May - 14:49:43 10° WNW 14:54:16 59° SW 14:58:50 10° SE daylight
31 May - 06:35:53 10° SSW 06:39:58 38° SE 06:44:06 10° ENE daylight
31 May - 08:17:20 10° W 08:21:30 38° NNW 08:25:43 10° NE daylight
31 May - 10:01:04 10° NW 10:04:01 17° N 10:07:00 10° NNE daylight
31 May - 11:43:43 10° NNW 11:46:56 19° NNE 11:50:12 10° ENE daylight
31 May - 13:24:51 10° NW 13:29:19 50° NNE 13:33:50 10° ESE daylight
31 May - 15:06:46 10° WNW 15:10:43 29° SW 15:14:43 10° SSE daylight
01 Jun - 05:14:19 10° SE 05:15:33 11° SE 05:16:47 10° ESE daylight
01 Jun - 06:52:05 10° SW 06:56:29 80° SE 07:00:57 10° NE daylight
01 Jun - 08:34:43 10° WNW 08:38:25 25° NNW 08:42:11 10° NE daylight
01 Jun - 10:18:28 10° NW 10:21:12 16° N 10:23:58 10° NE daylight
01 Jun - 12:00:15 10° NW 12:04:00 24° NNE 12:07:48 10° ENE daylight
01 Jun - 13:41:24 10° NW 13:46:01 88° SW 13:50:40 10° SE daylight
01 Jun - 15:24:47 10° W 15:27:04 14° SW 15:29:21 10° SSW daylight
02 Jun - 05:28:17 10° S 05:31:51 24° SE 05:35:27 10° ENE daylight
02 Jun - 07:08:50 10° WSW 07:13:09 53° NNW 07:17:32 10° NE daylight
02 Jun - 08:52:18 10° WNW 08:55:28 19° NNW 08:58:41 10° NNE daylight
02 Jun - 10:35:27 10° NNW 10:38:23 17° N 10:41:20 10° NE daylight
02 Jun - 12:16:42 10° NW 12:20:56 37° NNE 12:25:13 10° E daylight
02 Jun - 13:58:12 10° WNW 14:02:34 43° SW 14:06:57 10° SSE daylight
03 Jun - 05:44:01 10° SW 05:48:16 52° SE 05:52:36 10° ENE daylight
03 Jun - 07:26:02 10° W 07:29:59 31° NNW 07:34:00 10° NE daylight
03 Jun - 09:09:50 10° NW 09:12:38 16° N 09:15:26 10° NNE daylight
03 Jun - 10:52:06 10° NNW 10:55:30 20° NNE 10:58:57 10° ENE daylight
03 Jun - 12:33:11 10° NW 12:37:43 64° NE 12:42:18 10° ESE daylight
03 Jun - 14:15:32 10° W 14:18:58 21° SW 14:22:26 10° S daylight
04 Jun - 04:21:07 10° SSE 04:23:46 16° SE 04:26:26 10° E visible
04 Jun - 06:00:28 10° WSW 06:04:51 77° NW 06:09:19 10° NE daylight
04 Jun - 07:43:31 10° WNW 07:46:58 22° NNW 07:50:27 10° NNE daylight
04 Jun - 09:27:04 10° NW 09:29:49 16° N 09:32:34 10° NE daylight
04 Jun - 11:08:34 10° NW 11:12:30 28° NNE 11:16:29 10° E daylight
04 Jun - 12:49:49 10° WNW 12:54:21 66° SW 12:58:56 10° SE daylight
